GFSGBSN_850_rhum_114.txt.gz
RH
99 93 91 91 99 92 99 89 86 86 84 78 70 72 76 74 78 84 84 80 79 74 80 79 76 72 91 82 75 82 79 58 42 39 39 42 37 37 48 38 30 42 40 40 38 31 29
96 94 96 99 95 95 96 98 91 87 85 79 70 66 58 52 54 62 67 71 82 75 72 67 74 81 87 90 90 90 97 45 46 40 39 37 32 34 39 38 39 40 39 38 31 31 30
88 88 90 92 81 90 82 88 84 90 87 77 76 70 64 60 74 78 75 74 80 81 78 78 75 92 90 98 91 96 58 53 51 46 40 34 33 32 34 42 35 35 38 35 34 33 36
65 47 60 72 94 98 75 86 72 84 91 86 67 65 64 61 70 75 69 75 87 88 81 76 75 83 99 99 99 94 59 57 52 47 38 34 32 31 35 32 33 37 40 38 36 35 40
77 51 46 50 56 79 99 73 83 58 68 76 77 73 74 64 74 70 68 62 79 82 80 78 87 79 98 100 97 85 72 52 50 46 37 34 29 34 36 54 65 52 60 42 41 39 44
98 79 56 56 64 70 86 96 78 71 59 58 63 69 70 63 60 58 82 81 82 84 87 85 81 76 97 98 94 99 74 54 43 41 35 30 35 52 56 63 55 52 61 43 41 44 44
99 82 70 58 62 82 84 99 84 82 73 71 62 59 72 65 66 59 82 83 75 91 96 100 100 100 96 91 81 78 74 49 37 37 46 53 64 66 50 46 53 47 54 48 47 47 51
92 68 55 58 60 66 79 91 92 88 83 74 74 59 80 67 57 59 72 75 97 95 98 99 100 97 99 91 69 57 50 46 50 51 51 67 69 48 50 49 49 47 57 63 58 53 55
52 54 52 55 57 66 70 86 90 88 75 74 73 61 74 76 78 74 69 78 82 83 97 99 100 98 99 90 89 63 51 45 53 57 63 69 55 50 54 60 58 60 63 67 68 63 60
39 50 49 55 56 63 66 64 88 81 66 65 74 61 51 71 69 72 71 82 79 80 91 99 98 97 97 93 85 63 57 52 46 64 63 63 50 58 67 65 61 69 56 60 70 76 68
37 41 44 53 55 55 60 58 57 63 64 65 60 56 59 63 63 70 75 74 76 79 90 96 98 97 89 89 85 61 60 52 56 58 52 70 57 59 71 63 56 69 56 63 64 74 79
34 37 39 46 54 50 53 55 55 54 57 64 60 63 60 60 58 60 68 76 74 79 96 100 96 90 73 73 63 58 56 53 54 66 65 63 51 58 60 56 56 55 65 70 75 80 86
31 34 36 42 46 48 48 51 53 52 52 57 60 58 57 59 60 64 71 73 84 95 96 99 95 76 75 81 61 61 60 64 75 74 92 70 68 58 57 71 61 62 79 91 80 96 79
32 31 34 39 42 42 45 50 55 51 46 48 55 58 62 63 70 74 76 80 89 95 100 84 83 76 81 70 59 59 62 70 57 76 94 90 78 71 58 64 73 80 78 89 81 97 91
39 32 31 37 39 42 40 46 50 55 58 63 66 61 57 56 64 71 70 95 89 83 77 82 77 69 69 61 61 64 64 70 62 63 81 90 92 64 62 49 61 78 89 71 89 85 96
39 37 34 35 36 37 38 40 48 45 52 60 64 66 72 70 70 68 81 88 77 60 54 62 70 55 69 66 66 63 65 58 63 56 59 72 94 69 62 58 60 65 68 88 90 91 92
21 42 36 33 35 34 35 34 39 51 54 60 66 61 68 73 66 57 93 77 63 55 58 61 63 53 56 62 62 63 65 60 60 58 60 63 71 77 70 82 80 76 84 74 75 88 92
23 25 41 34 31 32 32 32 30 31 47 56 59 76 66 69 64 83 91 68 57 56 56 55 56 58 56 58 60 72 71 64 56 59 67 63 77 97 84 64 65 68 78 74 86 78 82
47 20 24 38 33 29 29 32 33 32 30 42 51 58 56 61 86 91 64 60 58 60 56 55 60 56 51 57 63 63 66 60 59 61 65 62 76 89 80 64 55 68 69 66 67 75 80
50 48 20 22 37 30 26 28 31 33 36 44 51 76 52 50 62 63 61 61 59 53 51 48 50 50 52 50 53 62 67 59 60 64 60 59 78 73 74 58 68 72 70 72 69 90 80
43 50 48 21 20 36 27 23 25 30 38 48 41 64 66 77 57 57 56 56 57 61 52 47 48 48 51 51 49 56 63 63 63 66 64 70 83 76 76 74 71 70 65 69 80 69 70
61 53 53 49 19 25 35 24 20 22 30 43 47 48 54 52 52 50 58 58 59 59 55 53 50 53 47 50 50 57 52 64 69 73 72 72 70 74 83 65 70 79 70 66 63 67 67
74 79 74 57 42 20 34 35 22 18 20 29 41 48 52 53 57 56 57 57 58 59 55 51 52 56 54 52 53 50 53 58 58 68 75 75 80 80 77 66 72 54 53 60 61 60 52
75 76 79 68 55 34 24 40 37 22 19 22 31 45 54 56 59 55 51 50 54 53 56 54 52 54 54 53 49 56 62 63 65 63 58 71 70 84 90 73 46 24 34 40 51 46 46
69 78 77 79 62 53 29 27 43 39 25 24 26 33 45 64 56 50 50 49 49 50 52 49 51 50 52 46 57 51 59 55 62 65 68 63 75 82 88 89 57 26 42 48 45 38 41
61 68 76 80 83 59 50 28 29 43 40 33 30 33 39 47 40 44 48 48 56 60 57 53 52 49 46 64 60 46 39 40 53 68 56 74 72 78 85 81 51 21 28 35 26 25 18
60 60 67 75 82 85 60 48 28 30 43 42 40 37 38 50 47 48 44 48 52 56 58 53 50 59 54 73 64 61 60 41 47 56 77 82 85 93 93 95 81 53 36 34 24 14 25
60 55 58 69 76 84 88 66 52 33 28 42 47 47 46 42 38 52 49 49 55 53 51 45 51 58 74 67 65 60 61 52 51 48 72 80 92 97 92 97 80 46 43 31 25 24 25
59 55 57 62 69 76 84 88 72 58 41 32 36 41 46 48 47 51 54 54 53 53 53 53 45 56 51 71 74 70 61 66 59 42 53 55 52 69 73 68 42 38 30 24 27 29 28

GFSGBSN_850_rhum_117.txt.gz
RH
71 89 95 97 92 89 88 78 83 83 75 58 64 72 70 70 73 75 75 85 88 86 83 74 79 74 98 88 93 88 89 65 42 45 42 44 38 37 43 38 36 46 46 42 36 29 30
44 50 93 95 88 87 87 59 80 83 78 68 65 61 51 57 66 71 80 71 81 76 82 73 82 85 87 86 96 88 97 56 49 43 41 40 32 34 39 41 41 42 42 38 32 31 32
54 45 54 89 91 93 89 75 58 86 86 76 59 59 58 78 78 74 75 78 84 75 68 62 87 88 82 98 100 86 59 53 46 41 39 33 35 33 33 42 37 35 42 36 36 34 40
81 57 58 69 74 86 99 74 59 74 86 79 79 81 71 67 68 66 70 86 81 83 78 71 89 84 99 92 97 89 51 50 48 40 35 34 33 30 33 31 35 37 41 35 37 35 43
83 75 83 91 85 89 98 88 74 54 60 69 72 75 58 67 66 65 66 77 80 77 74 76 80 79 99 98 99 83 53 48 44 39 35 32 29 35 34 51 62 50 54 40 42 39 46
65 66 72 95 93 86 95 97 82 72 61 55 63 68 62 66 62 76 82 82 84 79 81 76 73 73 94 100 99 84 62 45 43 37 33 30 32 53 62 50 56 45 67 44 45 45 45
44 48 52 92 100 97 87 95 92 82 68 70 55 67 66 64 76 86 79 76 71 82 94 99 96 98 99 97 97 86 63 44 37 28 50 54 61 65 50 48 49 50 50 50 52 48 53
43 42 53 76 99 99 91 92 89 79 76 71 56 82 71 60 68 80 76 75 100 93 96 100 99 98 95 88 88 87 68 65 41 56 50 64 67 48 50 48 49 50 55 64 61 53 59
46 40 43 56 80 91 95 84 84 69 70 71 62 78 84 85 79 74 76 88 87 92 97 99 99 99 96 87 88 74 82 58 55 64 60 67 54 51 52 56 62 66 65 66 63 63 62
45 39 39 48 54 72 66 60 69 62 58 67 62 58 75 74 76 76 78 78 76 81 92 99 98 97 94 90 72 62 59 51 52 64 64 66 52 60 65 66 61 64 58 65 68 71 58
36 38 38 45 47 52 57 50 57 59 59 48 52 52 64 62 65 74 71 71 69 78 90 93 97 99 95 88 79 56 58 50 60 66 48 67 58 66 71 63 59 67 58 65 66 79 77
33 34 38 42 44 48 53 50 49 54 57 53 55 63 66 61 62 63 68 74 71 78 95 100 96 95 93 73 69 58 55 50 54 66 67 63 53 60 60 59 58 59 69 72 82 80 79
30 31 35 41 42 44 52 50 45 48 53 54 57 57 59 61 60 63 71 75 84 94 92 96 98 93 79 82 61 60 63 68 73 73 90 75 73 61 58 69 62 67 78 82 63 86 70
32 29 34 36 41 42 44 56 58 60 56 53 56 57 59 65 68 72 77 79 89 89 98 82 82 70 79 65 61 61 61 73 67 72 92 86 73 69 58 64 72 79 73 78 43 94 92
36 32 33 33 37 40 43 45 53 55 58 62 67 71 69 64 62 70 74 96 88 82 79 90 84 73 70 62 62 63 66 70 63 66 72 93 88 65 64 58 60 71 88 72 89 87 95
29 36 33 34 32 36 38 42 46 48 56 63 68 66 75 75 73 68 81 90 79 63 67 67 71 61 73 67 68 64 67 61 63 59 60 72 94 68 62 57 61 65 72 84 88 90 93
18 32 35 37 33 30 33 35 38 49 53 60 68 62 67 59 59 54 93 78 63 58 58 62 66 56 63 64 63 64 68 62 61 61 62 70 73 68 64 80 82 81 83 77 79 84 91
37 18 30 35 36 33 28 31 33 35 48 56 62 74 62 58 62 83 91 67 58 58 58 57 60 57 60 59 62 73 68 66 59 60 69 66 80 96 82 65 67 70 78 77 86 76 86
50 42 18 25 35 34 31 29 30 35 36 39 55 58 59 58 85 91 66 60 58 58 56 55 60 56 53 59 67 67 68 64 62 65 68 63 75 88 74 67 66 76 76 72 71 78 84
48 51 45 18 23 33 31 29 27 32 38 48 53 75 52 53 63 66 63 62 59 54 52 50 51 51 50 53 59 67 67 62 62 67 61 58 79 69 64 49 69 79 73 75 72 92 83
67 64 56 42 18 27 32 29 25 28 37 52 42 65 67 75 60 61 58 56 60 58 53 48 48 49 52 52 53 65 67 67 66 67 67 69 74 82 79 78 71 70 69 77 83 70 76
72 73 68 54 32 20 32 31 26 25 32 45 43 48 54 55 55 52 58 58 58 60 54 51 48 52 48 51 51 59 61 64 64 75 70 76 70 74 86 68 80 82 77 74 72 74 73
68 67 69 59 48 27 22 32 27 25 29 34 38 45 44 60 61 57 56 55 55 59 54 53 52 55 56 51 52 52 53 56 59 77 79 80 82 80 78 62 72 56 62 58 63 67 59
64 66 66 68 56 45 27 23 33 25 25 31 35 44 46 51 62 57 51 51 54 55 58 56 52 54 52 56 52 56 62 64 65 64 63 79 72 85 91 71 37 22 37 48 56 51 53
62 60 64 65 68 53 44 28 25 30 25 29 37 39 42 58 54 53 53 49 51 51 53 49 52 52 55 49 57 49 58 60 67 68 73 67 76 82 88 89 51 21 41 50 46 29 43
63 60 62 66 66 71 54 44 28 26 29 31 32 38 44 40 40 43 50 50 56 59 54 55 54 53 48 63 58 41 34 40 61 71 76 78 75 77 86 79 38 17 28 36 30 24 15
66 60 58 68 70 76 73 59 50 34 28 28 37 38 38 48 44 45 45 49 50 57 57 53 54 61 56 71 60 58 59 42 51 62 84 87 89 93 92 93 80 54 36 34 23 14 22
69 59 54 62 74 75 80 75 64 57 47 37 37 36 43 43 39 54 51 52 60 56 50 47 51 56 74 64 63 61 60 54 52 47 72 83 94 98 92 98 71 46 45 29 23 20 26
74 60 54 53 62 72 77 78 76 73 66 58 49 46 40 45 45 48 55 57 53 52 49 50 44 57 53 70 76 70 62 73 60 41 59 55 56 69 76 67 42 40 36 27 30 35 31

GFSGBSN_850_rhum_123.txt.gz
RH
93 98 88 81 88 90 86 64 58 82 81 62 94 74 76 64 76 78 82 92 95 95 95 89 76 79 99 98 97 95 100 85 51 51 55 57 48 38 43 41 42 51 49 36 33 29 30
92 99 90 84 86 90 85 72 48 69 70 83 68 68 70 74 74 80 81 93 98 92 88 86 78 84 92 90 97 90 79 57 51 51 51 45 43 36 37 48 47 47 39 36 31 34 33
87 99 98 93 78 88 91 79 69 40 50 57 58 54 64 68 67 83 85 93 89 83 73 89 86 81 88 99 97 87 62 51 45 48 42 42 36 29 34 49 38 34 39 37 40 36 43
88 99 100 96 86 90 94 87 74 48 42 52 58 52 61 62 69 86 88 83 75 65 92 90 92 76 99 100 96 86 52 46 40 41 35 33 30 29 34 33 32 36 35 32 38 37 46
80 98 99 98 92 86 90 91 71 56 50 47 58 55 56 66 68 86 89 90 78 71 84 85 74 81 99 98 93 76 60 42 38 35 34 29 26 35 33 48 58 48 50 37 39 42 44
70 80 98 100 92 93 87 87 63 56 56 46 59 58 63 78 77 86 84 80 81 75 68 70 77 84 96 100 93 68 54 39 34 31 29 27 30 47 52 46 60 44 51 42 40 45 46
66 48 82 100 90 88 90 83 54 56 56 52 60 60 66 81 73 73 69 67 66 82 90 100 99 96 99 96 91 78 54 36 34 31 47 43 61 66 54 45 38 52 43 50 56 53 57
51 42 56 84 90 77 58 63 47 52 51 53 55 54 60 71 64 70 61 79 95 92 97 94 98 98 99 96 93 75 61 42 40 57 44 63 73 57 55 54 52 51 53 70 62 58 60
36 39 44 55 81 50 47 49 45 44 44 50 67 68 71 75 78 70 72 79 87 88 95 98 100 98 99 89 99 80 62 54 55 63 60 68 59 55 56 63 63 75 58 59 55 60 60
32 36 42 46 58 55 45 47 48 38 40 41 60 61 71 72 73 73 72 73 70 72 90 99 96 96 97 88 86 71 64 62 57 67 68 70 60 60 65 71 55 66 65 68 66 52 45
30 33 40 42 49 59 51 46 49 50 48 52 57 60 57 63 64 65 67 71 73 73 90 97 95 96 89 90 84 62 63 49 66 66 51 72 67 67 74 68 59 74 67 71 71 74 65
30 29 36 42 44 51 59 55 48 50 53 56 57 57 58 61 60 63 68 71 65 79 96 100 97 90 82 76 75 60 58 50 56 65 72 69 62 67 64 71 68 70 64 65 72 70 63
33 31 32 37 43 45 50 57 56 56 56 56 57 58 61 63 65 67 69 68 84 93 96 100 98 84 72 71 66 62 69 75 60 65 85 72 72 64 60 70 63 66 66 72 64 74 62
34 33 32 32 37 42 47 47 54 56 61 66 71 76 76 72 67 68 71 74 88 94 97 94 85 78 75 64 66 64 68 79 71 70 87 78 66 65 63 62 68 79 62 70 44 53 73
20 34 34 32 32 34 38 42 48 48 54 59 63 69 78 77 67 66 65 96 92 90 89 88 71 74 74 66 65 69 73 75 70 61 58 91 97 68 67 65 58 81 83 65 87 90 90
35 19 30 34 32 31 31 35 39 47 51 57 60 64 71 62 64 59 81 90 79 72 77 72 73 66 77 73 70 69 70 65 70 64 58 72 96 70 68 63 71 64 70 73 83 71 69
52 41 19 23 33 31 29 30 34 39 49 56 62 59 57 51 50 51 93 78 68 62 63 67 63 67 68 70 69 69 68 66 62 69 64 70 73 77 66 78 85 85 86 83 76 76 76
53 53 47 20 21 33 30 27 28 38 43 42 62 72 55 51 60 84 92 70 62 62 63 62 61 57 63 65 72 74 70 66 62 63 72 70 77 95 74 69 69 71 76 74 71 75 84
70 68 57 39 21 24 32 27 25 31 40 42 55 54 52 47 83 91 67 62 62 59 58 60 61 57 57 65 74 74 75 70 65 63 71 68 79 87 74 67 76 83 81 73 72 76 87
66 66 60 50 33 24 30 30 22 28 39 52 47 71 49 52 64 68 63 66 61 57 56 52 55 52 51 61 68 77 78 70 69 70 64 58 77 62 59 46 78 92 86 78 72 88 79
64 62 66 60 46 32 24 31 25 25 44 55 40 71 63 74 64 67 63 62 60 59 55 51 52 54 53 59 58 72 72 75 73 73 69 61 62 80 74 70 68 72 77 88 82 73 74
64 61 62 66 58 44 30 26 29 23 33 49 44 49 53 62 60 57 57 59 57 62 53 50 52 55 52 54 49 62 70 69 63 77 73 78 67 74 85 68 78 81 78 80 83 78 79
68 60 59 63 66 56 40 29 27 26 29 32 39 46 41 68 65 55 52 57 55 56 57 53 52 54 53 54 54 57 56 60 60 77 79 76 78 78 63 70 69 51 64 76 78 78 70
71 63 59 62 63 66 55 39 28 28 27 31 37 46 48 47 69 60 51 56 57 59 53 60 54 47 58 59 56 60 63 66 67 76 69 81 75 84 90 59 31 20 42 56 64 61 70
74 66 61 61 61 64 67 56 40 29 29 28 30 37 39 45 58 55 56 53 55 54 56 51 56 56 62 52 54 48 60 66 81 84 73 71 78 86 85 82 44 26 41 49 45 26 46
82 72 63 60 60 60 70 69 58 47 36 33 32 30 33 34 33 46 55 52 57 58 55 61 63 63 54 61 53 37 36 48 79 76 80 80 77 75 89 72 24 14 28 40 37 21 23
86 78 66 59 59 61 64 76 73 64 57 45 40 37 35 35 38 46 50 56 50 54 52 57 64 64 54 64 51 52 54 46 63 75 96 91 90 93 91 91 70 46 37 40 22 21 27
90 83 70 61 56 59 64 68 75 74 68 63 55 58 53 42 41 47 49 50 54 51 47 52 58 60 72 58 56 60 59 59 54 55 83 90 95 96 88 95 57 46 44 31 26 37 37
91 86 74 63 58 58 62 64 66 67 66 66 67 60 55 54 50 48 56 57 54 51 46 57 41 52 54 63 72 67 64 77 59 37 65 58 61 69 74 64 42 44 34 36 41 48 45

GFSGBSN_850_rhum_126.txt.gz
RH
91 98 96 96 86 88 82 67 44 61 60 83 66 57 63 73 82 82 94 97 98 90 86 80 64 74 91 92 95 84 94 97 68 57 57 52 52 42 39 34 39 38 37 35 35 32 30
98 97 98 98 90 87 91 77 62 38 49 56 58 59 62 62 74 86 92 98 91 92 89 88 81 83 86 80 82 83 85 86 63 57 57 53 45 39 37 38 34 41 33 32 32 33 33
99 98 96 98 95 85 93 85 62 40 42 54 55 58 59 66 82 88 97 88 85 96 97 99 94 86 78 99 88 85 76 62 57 51 52 51 45 34 36 38 36 31 32 26 32 32 34
87 96 94 97 98 84 91 78 61 46 44 51 55 52 54 68 82 81 80 82 89 96 88 88 86 90 99 98 93 98 76 54 48 44 48 42 35 30 36 36 28 26 25 32 30 32 40
74 77 93 96 99 98 88 71 57 52 49 54 55 54 70 67 82 83 86 86 85 91 84 82 80 85 99 98 90 85 80 62 43 38 37 31 27 35 35 32 40 28 48 31 32 37 34
54 54 65 96 99 99 91 62 51 52 46 57 56 59 72 75 80 76 72 78 76 73 70 78 85 82 97 98 85 76 66 52 40 31 28 29 33 29 28 30 55 34 39 28 29 37 35
39 42 56 58 98 96 64 44 45 46 44 54 53 59 65 62 64 67 64 65 76 81 96 100 100 98 100 97 84 67 59 47 33 33 33 42 33 37 30 31 27 28 28 36 42 48 42
32 39 42 54 57 86 55 42 36 37 46 64 67 72 69 68 69 60 56 69 84 82 97 99 98 100 100 95 85 63 51 42 35 38 37 44 51 46 40 34 28 25 29 43 48 50 41
30 38 39 47 56 50 52 50 38 36 43 56 63 73 77 73 62 56 64 75 78 83 93 98 99 98 100 92 88 63 62 49 38 43 36 40 50 47 38 37 33 38 26 37 50 47 43
28 35 37 42 53 54 49 50 50 46 47 50 54 64 69 68 65 57 60 70 68 73 96 100 97 98 96 86 75 70 63 54 46 48 44 50 51 44 42 51 37 39 51 45 44 32 30
26 32 37 40 44 55 54 48 49 51 51 51 52 56 60 63 64 62 69 72 70 70 85 94 96 97 86 80 71 58 54 49 49 51 45 65 52 49 54 64 51 56 50 48 45 40 42
28 29 34 37 42 46 54 56 54 56 56 56 55 55 56 59 62 66 69 73 64 83 92 99 96 90 72 68 67 58 54 50 52 49 50 60 62 58 60 57 51 52 46 49 46 45 50
30 30 30 33 36 40 46 49 58 60 64 67 71 74 74 68 65 66 69 68 90 86 93 98 99 78 53 52 54 50 52 50 46 73 88 52 61 57 55 53 51 50 48 82 72 84 51
18 31 30 30 32 32 34 40 47 51 58 66 69 72 77 70 66 64 68 64 84 93 96 91 76 59 60 50 56 55 52 50 49 41 60 72 69 58 57 54 48 56 49 68 81 42 48
31 17 27 32 31 31 30 31 35 46 51 56 63 66 68 60 59 63 69 94 89 78 72 71 63 57 61 54 49 53 59 58 58 48 48 65 92 61 60 55 54 58 59 50 66 64 54
50 41 18 20 31 30 30 29 30 36 47 54 59 64 66 52 58 53 68 86 69 67 67 62 61 55 58 56 52 49 55 58 61 57 50 54 81 62 63 59 58 54 51 57 60 60 44
57 55 46 20 18 29 29 27 28 35 36 46 57 60 56 45 46 57 93 74 60 63 63 61 55 57 57 58 56 51 57 59 55 61 52 49 50 71 62 62 54 62 62 58 50 56 49
68 62 56 37 20 23 28 26 25 30 38 36 55 76 52 48 67 70 78 66 63 60 66 61 57 52 54 58 61 55 54 59 59 57 58 56 52 70 60 61 58 58 54 45 42 57 55
64 63 56 46 33 23 28 28 22 28 38 42 51 50 46 42 72 68 62 59 60 55 54 55 56 53 51 60 63 65 67 68 66 57 57 54 54 71 65 61 64 67 59 53 49 50 56
62 60 63 56 44 32 24 28 22 28 41 48 43 75 47 46 58 52 53 56 57 58 54 52 51 48 47 55 56 68 71 68 70 67 63 53 57 52 37 46 55 68 68 59 49 60 44
64 60 57 60 55 41 30 24 26 25 38 44 39 66 55 60 53 56 54 54 54 52 53 50 47 46 44 51 52 62 65 68 69 72 62 48 52 62 51 52 56 58 63 68 64 48 44
68 63 58 55 61 53 39 28 25 25 31 34 46 51 52 60 62 51 50 50 50 54 50 44 46 50 45 42 39 51 55 58 53 66 60 61 58 60 67 56 55 56 47 52 61 55 53
70 68 59 58 58 62 51 38 26 26 27 32 39 44 39 66 55 44 40 49 50 52 59 56 47 46 48 52 54 59 59 56 52 56 59 56 58 59 45 51 50 44 41 44 46 52 46
74 72 61 59 60 62 63 50 37 27 25 28 34 46 49 37 50 44 47 53 54 56 50 59 54 42 62 58 56 58 60 63 61 64 59 59 56 64 62 49 34 22 37 39 44 41 45
81 76 67 61 61 61 68 62 52 40 31 30 29 35 39 31 46 47 52 51 58 58 52 50 61 58 62 55 41 47 53 60 64 66 61 56 51 58 56 44 31 29 40 43 38 24 34
91 81 74 63 60 63 64 71 64 57 49 36 33 32 32 34 29 45 51 53 43 44 49 66 67 66 59 45 37 32 27 40 65 69 68 60 54 48 59 52 16 16 28 39 36 22 28
98 87 80 68 60 60 64 69 73 67 60 51 48 51 39 37 35 46 46 47 48 48 37 59 70 65 54 43 37 34 35 40 45 53 74 68 67 65 59 58 37 29 38 40 25 21 32
100 92 84 74 62 58 59 66 68 68 63 63 56 54 51 48 43 44 47 48 52 48 37 56 60 62 57 43 36 38 39 39 43 44 62 59 66 68 66 69 50 43 45 33 34 42 46
100 98 90 80 65 59 58 58 60 61 56 56 59 56 53 52 50 46 53 55 55 52 43 57 43 53 50 41 47 46 46 49 39 27 54 46 45 45 48 39 41 46 40 40 47 49 50

GFSGBSN_850_rhum_132.txt.gz
RH
68 89 83 88 82 84 68 58 46 35 37 56 53 47 61 84 92 89 94 97 96 85 91 87 76 79 76 94 92 81 90 86 87 67 72 48 40 45 45 40 37 34 34 32 32 27 26
50 86 82 87 92 78 70 53 44 42 38 54 45 44 64 81 82 80 90 91 95 85 88 82 79 74 79 78 95 78 81 80 82 69 62 48 39 40 34 34 39 33 32 31 28 26 26
42 60 78 82 94 79 70 48 42 42 50 62 49 60 59 82 83 83 89 99 98 90 80 74 75 75 89 94 98 82 70 77 86 64 57 47 41 39 30 39 31 32 39 35 30 27 28
41 56 84 69 94 85 51 42 38 45 49 55 60 61 64 80 81 84 86 94 89 97 91 86 90 97 99 100 99 88 80 76 76 57 53 46 43 34 32 32 31 35 36 49 32 29 30
35 42 63 57 73 67 35 39 39 48 48 53 58 57 56 73 78 79 80 76 79 89 94 96 86 82 99 98 99 98 82 60 63 54 50 47 37 34 32 42 56 37 70 43 37 29 28
33 40 49 57 45 46 38 36 38 50 55 63 66 58 62 57 69 71 74 66 78 72 87 91 93 88 95 98 96 99 87 76 64 56 44 39 34 42 40 47 73 50 50 38 42 34 31
33 38 44 56 49 45 44 41 38 48 54 59 69 65 62 54 54 63 61 81 83 86 96 100 98 100 94 95 90 93 87 84 72 64 57 41 52 58 39 36 29 32 37 42 44 37 29
30 36 41 50 56 44 44 45 45 44 49 52 68 61 56 53 56 60 65 84 88 94 98 100 99 96 97 95 86 67 73 81 77 65 44 54 60 34 28 26 27 29 35 47 42 35 36
27 33 41 43 52 51 45 46 48 48 49 51 60 61 63 61 58 57 58 70 80 100 97 98 98 98 99 99 91 83 72 57 49 56 45 59 44 35 29 27 28 28 37 46 56 38 30
26 30 36 42 43 49 51 52 53 54 54 51 52 59 59 57 72 61 71 65 70 73 99 100 96 94 92 92 84 72 66 60 42 41 43 46 37 34 32 43 40 48 32 35 42 52 69
29 27 31 36 40 44 45 49 54 57 60 63 65 62 61 58 59 74 60 62 63 66 92 98 94 96 83 75 68 54 50 44 40 41 49 51 43 40 55 50 41 48 29 31 34 34 37
21 28 30 31 34 34 34 36 44 49 53 57 64 70 76 80 83 64 60 61 61 93 96 99 95 79 64 61 58 56 47 40 35 48 52 58 47 49 46 41 39 38 35 32 34 51 76
28 18 27 31 31 32 29 31 34 40 49 51 56 64 71 68 82 66 60 77 95 92 86 90 92 67 47 48 41 43 46 45 58 79 86 56 57 50 44 48 41 42 49 96 79 68 86
52 42 19 20 30 31 30 29 31 38 43 51 53 59 65 63 59 54 70 80 88 87 84 71 68 51 57 44 43 37 40 46 40 46 83 87 73 59 47 48 45 47 53 92 68 78 87
63 58 42 22 20 26 30 28 28 34 39 48 53 53 59 58 54 61 77 89 96 72 58 59 59 54 50 44 52 46 44 47 51 42 62 81 88 54 50 44 51 46 69 44 57 41 76
69 58 51 36 26 23 26 26 25 29 38 41 52 78 69 54 60 63 76 78 67 54 50 49 56 58 52 46 45 41 41 47 54 46 44 48 80 50 54 50 48 52 42 62 84 68 55
67 61 53 44 35 26 23 26 22 28 36 39 60 68 44 39 60 64 94 68 54 51 53 54 51 48 46 48 42 42 48 48 46 47 43 38 57 65 52 55 52 51 52 48 52 61 83
63 61 62 56 44 34 24 24 21 28 37 41 61 81 40 50 71 58 89 53 50 52 56 51 54 45 46 44 45 43 54 57 50 47 44 43 50 81 55 53 50 53 48 36 56 53 49
65 62 57 59 56 42 32 23 23 30 40 48 61 49 39 51 87 73 52 52 50 49 48 49 49 47 43 48 55 51 62 53 54 59 63 52 55 83 64 60 54 58 48 46 45 53 58
70 68 62 56 56 54 40 27 25 32 38 38 57 87 50 44 45 43 47 48 52 52 47 45 44 42 46 48 46 58 64 60 58 58 54 56 50 63 65 64 54 57 52 50 50 80 50
73 71 68 59 57 55 51 37 25 26 31 41 51 66 48 64 47 42 40 40 47 50 47 42 42 40 39 49 51 55 61 66 60 57 51 51 57 59 43 44 47 51 55 56 62 57 52
77 71 72 66 61 56 54 47 32 24 26 40 64 52 42 42 44 41 46 37 37 46 44 38 41 38 37 45 47 54 53 52 53 57 49 47 62 51 68 43 43 47 45 53 57 53 51
96 74 72 71 63 60 56 55 46 30 24 46 34 44 43 42 40 37 41 42 42 41 49 44 38 34 50 52 48 46 43 45 47 50 50 45 61 67 52 38 41 50 46 43 50 47 50
100 93 71 73 66 63 58 59 56 46 32 30 38 43 52 43 38 37 36 40 44 46 45 46 43 39 55 50 46 43 44 44 45 49 47 49 50 65 82 53 51 28 32 38 37 34 35
99 100 90 73 72 63 61 59 61 58 48 36 31 35 51 50 30 37 40 41 47 47 47 50 60 58 52 46 44 50 52 45 50 53 49 50 47 64 79 59 36 30 32 38 40 35 28
99 99 100 89 74 68 61 61 60 63 59 49 47 46 38 51 39 37 37 40 44 45 51 64 63 60 53 49 43 38 44 42 67 68 53 53 52 63 55 53 40 34 33 31 29 38 34
99 98 99 100 84 77 63 60 60 62 61 58 52 53 47 54 40 37 44 46 39 36 53 58 66 62 57 56 48 38 38 37 61 62 78 69 60 72 68 65 51 32 34 31 32 36 33
98 99 98 100 97 80 70 62 58 60 58 55 56 57 52 60 56 38 39 47 43 39 42 60 62 63 62 61 44 39 41 40 36 41 61 65 76 73 62 64 62 35 38 41 40 38 40
98 96 97 98 100 90 84 66 61 58 57 52 56 58 55 52 63 48 46 44 47 48 42 55 48 46 48 54 48 44 45 42 36 38 39 54 46 52 54 57 40 35 41 43 39 39 43

GFSGBSN_850_rhum_135.txt.gz
RH
46 59 76 88 92 76 77 61 37 39 39 86 73 73 67 72 73 74 88 98 85 87 92 84 82 89 83 94 94 89 89 91 80 79 58 54 49 51 56 49 39 39 35 32 28 26 26
41 52 66 86 96 69 71 54 37 43 50 82 79 69 58 68 77 83 86 78 86 79 85 86 85 85 79 87 97 82 95 90 82 77 62 53 44 44 43 43 43 36 34 32 28 26 26
47 53 77 70 92 71 52 42 38 47 48 56 60 58 57 68 76 81 83 83 88 80 80 82 84 78 78 98 95 81 81 82 86 87 56 48 46 45 40 44 34 32 40 36 33 29 30
35 41 60 61 72 58 41 38 38 49 48 54 58 50 51 68 74 78 79 87 90 83 75 80 82 89 97 100 98 81 76 82 84 73 52 49 47 46 42 32 34 40 43 49 32 30 27
33 38 50 52 48 50 43 37 38 50 56 58 59 64 66 60 70 76 77 78 85 86 95 91 87 86 99 89 91 90 77 72 79 66 55 48 46 36 34 49 64 44 67 50 38 31 28
33 36 44 53 44 47 45 42 40 48 51 59 63 63 63 65 61 67 69 78 87 85 88 83 85 77 95 99 92 89 78 70 71 66 58 45 37 49 48 61 73 55 57 46 48 36 32
30 36 40 50 50 45 44 44 46 46 48 56 57 62 62 62 68 61 61 81 84 83 96 100 97 98 100 98 96 86 80 68 62 56 64 43 58 64 52 47 39 38 46 55 46 36 29
27 32 39 41 50 49 44 46 49 49 51 51 55 57 58 57 57 60 56 72 87 89 97 98 97 98 99 98 90 87 84 82 69 65 55 67 62 42 41 43 35 34 52 53 44 38 36
26 30 35 41 42 48 51 51 53 55 54 52 54 54 59 60 58 61 64 68 74 85 95 98 98 98 99 91 86 85 84 77 73 73 63 66 47 36 32 32 29 37 49 53 51 39 31
29 27 30 34 39 42 44 47 52 56 59 62 63 60 59 56 66 68 85 69 71 91 94 100 96 96 99 92 90 76 80 81 84 87 48 44 37 36 41 48 45 40 38 45 49 51 52
21 30 29 28 30 32 34 34 36 44 54 59 64 68 72 72 69 69 70 66 68 73 93 98 94 97 84 86 79 63 72 64 69 58 45 60 49 55 58 50 47 39 36 43 42 37 45
36 21 24 29 30 28 30 31 33 35 46 52 58 63 70 71 68 67 66 65 68 84 96 100 95 83 76 60 59 52 52 53 43 54 55 58 49 53 48 46 42 38 38 57 63 60 63
53 49 25 18 24 29 29 30 32 33 38 50 54 60 68 67 67 65 63 75 84 94 91 93 93 78 68 70 60 48 50 51 68 75 85 64 63 51 48 46 45 43 64 82 51 60 58
64 63 50 27 20 22 28 28 31 29 35 47 50 58 63 67 60 58 79 82 90 90 99 71 72 63 69 62 54 48 52 55 49 56 90 84 70 65 54 49 49 50 71 70 45 71 73
69 60 53 38 29 26 26 26 27 27 34 37 49 58 57 59 56 70 75 95 96 78 70 72 69 60 57 50 52 48 51 57 59 50 70 84 86 56 55 50 46 40 71 48 60 57 72
66 62 57 47 38 31 28 27 24 24 34 36 48 67 56 53 64 70 80 82 72 56 54 59 71 71 57 49 52 47 52 52 57 49 48 56 83 56 55 52 47 46 46 48 76 56 54
61 62 64 60 49 38 29 25 24 28 35 38 62 70 46 47 65 55 89 71 61 52 55 58 60 54 49 50 48 50 61 56 52 48 45 44 64 69 54 59 54 50 56 53 60 75 77
61 59 58 61 62 48 36 26 26 34 37 44 64 90 42 50 65 77 89 57 54 56 56 55 56 51 50 53 58 70 73 64 55 54 55 46 63 86 62 55 52 55 53 45 63 54 59
61 61 60 58 62 58 44 29 26 36 36 38 56 50 46 55 82 84 57 57 55 54 51 52 52 50 47 53 62 64 71 57 57 62 61 58 65 84 67 58 59 53 50 48 52 65 57
62 62 63 61 60 61 53 39 26 27 30 34 51 87 53 46 48 56 52 54 62 52 49 46 46 45 49 52 50 68 75 63 58 58 57 58 60 62 53 48 61 65 60 54 54 79 55
68 64 64 65 60 59 59 49 34 25 26 46 48 70 51 73 53 46 43 45 52 56 48 43 45 42 43 56 56 68 71 72 63 56 54 54 62 58 47 48 50 54 58 61 60 53 50
89 65 67 67 59 60 59 56 46 28 28 38 52 55 47 47 42 44 46 41 44 48 50 41 47 42 49 56 57 60 64 63 64 61 54 51 64 54 61 44 43 46 47 61 62 57 57
98 93 63 66 64 60 59 56 53 41 26 35 41 56 48 49 48 46 48 44 45 51 49 46 43 44 56 55 50 49 47 51 56 62 58 52 62 72 52 40 42 33 49 50 62 60 55
95 99 90 63 69 62 60 58 56 53 38 30 31 40 58 54 45 46 40 43 48 51 53 50 47 48 54 48 44 41 45 48 50 57 52 54 61 75 82 52 32 18 32 38 48 55 47
96 97 99 92 67 70 63 58 58 58 53 43 42 31 47 62 39 40 42 50 49 46 51 61 58 57 51 47 53 59 64 49 60 62 64 59 60 73 70 70 37 31 29 41 46 45 34
98 99 99 99 92 71 67 62 58 58 57 52 50 50 38 51 45 40 42 44 58 59 58 67 62 58 52 57 50 44 53 56 70 71 60 59 63 60 67 45 41 29 33 32 27 31 37
100 99 99 97 100 79 77 64 61 58 55 50 51 51 48 52 44 35 48 51 42 44 69 68 62 60 56 67 54 45 41 45 60 71 72 73 68 71 72 69 55 34 34 31 22 22 37
98 98 98 98 100 96 82 76 64 61 57 53 51 50 49 53 58 50 40 44 42 43 58 62 58 62 69 64 56 49 43 40 41 60 68 64 80 77 72 68 56 37 37 31 36 42 40
99 98 98 98 97 100 93 94 74 65 62 53 51 51 52 50 57 51 48 46 49 51 46 59 51 56 52 64 59 55 45 49 42 44 45 57 58 67 60 59 42 37 37 40 36 37 39

GFSGBSN_850_rhum_138.txt.gz
RH
68 94 74 93 98 79 46 38 35 40 44 49 49 52 54 68 74 87 80 92 82 81 85 78 78 89 91 97 93 100 96 89 74 95 71 60 56 55 68 56 40 40 36 32 29 28 28
74 78 87 71 90 62 45 42 35 44 45 49 56 57 58 71 78 82 77 90 84 77 86 90 88 95 89 93 97 100 100 95 81 74 70 62 50 51 49 48 45 36 35 33 28 28 27
50 43 76 80 69 58 58 40 38 47 47 54 57 50 56 70 76 76 75 77 86 75 85 89 87 91 91 97 95 94 93 88 84 74 62 64 54 48 47 48 35 34 38 37 34 31 30
34 42 52 54 48 52 61 40 40 47 53 59 58 59 56 62 71 77 73 73 80 84 78 80 85 94 96 100 92 84 90 92 88 74 61 60 53 48 45 37 36 42 44 45 35 31 26
31 37 45 54 44 49 48 43 41 46 51 61 60 60 71 71 70 75 76 74 80 92 92 81 79 78 96 88 88 83 85 84 85 64 61 56 49 44 39 54 67 54 69 48 39 32 28
29 33 39 49 46 44 48 46 46 46 48 57 57 60 60 68 68 69 69 84 86 85 83 76 81 72 92 97 87 88 80 76 76 74 78 56 45 51 55 62 76 62 62 48 47 36 31
25 31 38 42 50 48 46 47 50 49 49 51 54 58 63 60 57 60 64 86 81 89 96 100 98 93 94 88 90 83 77 74 72 83 88 48 60 66 53 43 46 47 46 49 45 36 32
23 27 32 40 42 48 51 51 53 55 54 49 51 53 57 59 58 62 62 78 79 89 94 98 98 100 100 92 85 82 76 73 70 77 76 66 68 48 44 44 40 48 54 56 46 38 33
26 24 28 33 39 43 44 45 51 54 54 59 59 55 56 58 58 62 62 72 80 83 95 97 97 98 99 88 87 86 76 75 69 76 80 65 48 39 42 42 34 42 49 57 51 41 31
21 26 26 28 31 32 34 34 35 38 47 52 60 65 70 71 65 67 77 65 74 92 92 99 96 97 97 91 86 85 80 85 85 73 64 46 38 37 44 45 44 44 40 47 51 45 58
37 23 20 27 29 30 30 30 32 33 39 49 53 61 68 74 75 70 69 67 77 85 89 96 94 96 93 94 94 85 84 80 83 77 51 54 51 53 50 49 46 43 46 45 42 45 41
53 52 37 19 20 27 30 29 29 32 38 47 52 58 67 70 74 75 69 69 73 78 94 99 86 79 89 86 88 85 85 81 64 56 56 59 53 53 48 48 43 42 50 52 53 50 60
61 64 55 35 24 22 25 26 27 29 36 45 49 58 64 65 69 75 69 74 84 94 84 97 97 73 79 94 83 70 82 85 94 79 82 66 62 59 50 43 40 49 53 74 54 62 58
66 59 52 42 34 28 27 25 25 26 33 41 46 59 63 61 58 59 74 82 91 90 87 76 90 80 90 65 57 61 62 61 53 62 84 82 72 66 60 48 45 55 52 68 40 59 64
62 60 56 50 40 34 30 25 23 24 34 35 44 53 56 64 62 72 75 96 88 84 75 75 77 81 66 57 57 55 56 60 58 51 66 77 78 58 55 53 46 44 68 53 62 68 69
63 59 60 59 53 40 32 26 24 26 36 38 47 60 51 52 68 77 80 83 73 58 60 69 80 66 62 53 53 49 56 55 53 49 49 56 81 58 53 50 44 40 46 56 77 57 43
63 57 55 56 57 51 38 27 26 35 38 46 62 62 50 59 74 62 87 74 61 53 55 64 60 60 50 54 51 56 63 59 57 49 45 52 59 68 50 59 52 54 54 58 62 71 74
62 60 57 55 54 55 46 30 28 38 37 49 64 70 50 59 67 81 88 59 54 58 57 58 54 50 50 54 59 72 70 63 59 56 55 53 69 84 59 57 55 58 50 50 54 46 66
57 59 59 57 54 54 53 41 26 29 31 40 55 53 58 62 77 84 62 57 56 56 54 54 55 50 48 55 68 72 70 61 61 60 60 56 66 80 56 45 51 56 52 50 59 65 57
69 59 61 60 54 55 53 49 33 25 27 39 55 72 57 50 54 62 57 61 60 53 50 47 49 47 51 55 60 75 76 66 60 57 58 56 67 52 52 42 52 56 60 54 54 78 58
91 64 62 61 58 54 54 52 44 27 29 53 51 66 58 67 53 49 48 49 57 57 49 45 46 43 45 62 60 77 76 72 64 58 55 54 63 59 49 49 53 55 57 63 58 46 49
99 93 62 63 57 55 54 51 51 36 31 34 48 55 52 50 46 46 51 44 48 50 51 44 48 54 49 56 55 68 72 72 62 63 55 55 63 50 60 44 43 45 51 64 63 55 55
98 99 87 61 61 56 55 52 52 45 29 30 46 52 50 55 53 49 51 45 49 47 49 50 46 53 59 58 52 53 53 54 61 66 62 56 63 69 46 48 42 31 44 59 67 62 55
98 100 99 84 63 60 56 55 52 52 42 34 30 44 56 54 49 47 44 45 50 52 54 55 49 51 56 50 45 43 47 51 55 63 57 60 67 76 82 43 27 20 35 39 58 61 58
96 100 99 99 78 67 59 57 54 54 54 46 46 33 43 59 45 43 46 54 50 50 57 60 59 58 52 45 57 58 63 43 58 66 68 60 64 77 68 58 34 35 34 45 44 37 57
100 99 99 98 100 64 67 59 58 54 52 51 50 47 40 45 45 42 45 48 60 62 62 63 61 57 50 59 52 46 56 48 66 64 62 63 66 54 72 38 27 27 32 34 25 32 38
98 99 99 98 99 97 69 64 60 59 53 48 51 50 49 49 44 40 50 50 46 55 69 70 61 59 54 67 53 50 44 53 61 68 64 66 68 70 73 69 53 39 34 30 22 18 38
99 99 99 98 98 100 90 74 65 62 57 51 51 50 49 51 56 52 43 47 46 46 58 63 62 66 72 65 59 54 48 46 54 61 67 60 76 78 73 65 39 37 37 29 29 40 39
100 98 96 96 97 98 100 86 79 65 60 56 52 53 52 51 60 58 49 48 48 47 46 61 50 59 52 66 69 61 53 55 45 41 58 57 51 58 54 47 38 36 32 32 35 38 38

GFSGBSN_850_rhum_141.txt.gz
RH
97 92 98 82 87 99 52 37 37 44 43 49 43 49 49 61 63 70 75 76 84 77 83 83 73 78 97 99 92 80 90 71 86 93 91 74 64 60 75 70 45 41 36 32 33 33 30
82 63 99 96 91 99 54 38 40 45 48 53 49 50 50 62 63 69 69 76 85 76 86 86 86 95 98 92 83 84 82 98 92 89 96 68 58 56 57 58 47 38 36 34 31 30 28
56 42 73 78 75 76 60 40 41 46 50 57 57 58 55 57 61 69 74 71 80 83 87 86 85 94 93 89 88 92 99 98 90 91 89 69 56 51 52 54 37 35 36 36 37 32 31
40 42 51 61 63 49 45 44 42 45 48 57 58 63 65 60 57 61 66 70 84 88 88 86 88 92 97 95 98 100 96 92 98 94 79 63 56 50 47 41 38 40 44 49 36 35 28
28 37 45 48 48 42 45 46 46 45 45 52 53 56 61 70 66 68 63 70 90 95 90 93 93 90 92 91 93 92 90 91 100 92 81 75 55 48 40 56 67 58 65 47 39 34 29
27 30 38 41 46 44 44 47 49 48 46 49 51 53 58 61 61 64 64 74 83 93 85 79 78 73 82 95 88 87 84 86 88 89 85 76 50 55 60 66 69 64 60 47 47 36 33
26 27 32 40 40 41 46 49 51 53 53 49 50 54 55 58 60 60 61 80 79 83 86 100 99 82 89 84 87 81 81 80 70 73 94 75 60 69 58 48 51 52 45 48 44 35 33
29 26 28 31 39 41 42 43 47 52 54 58 56 53 55 57 59 60 66 78 87 88 94 89 96 96 94 89 84 80 78 80 84 86 86 90 70 51 48 47 48 46 52 55 46 38 33
24 26 27 27 29 31 31 31 32 35 41 51 57 63 66 69 72 63 68 79 85 86 90 97 98 98 97 88 89 83 77 75 76 84 95 98 49 47 44 43 46 48 48 58 51 40 33
41 29 22 25 27 26 27 27 28 31 35 44 52 58 66 71 72 70 75 68 76 94 93 98 96 96 91 91 90 86 82 84 78 93 94 78 42 40 45 47 44 45 43 48 53 50 61
54 55 46 26 19 22 26 27 28 30 35 43 51 57 64 72 75 73 72 69 72 86 90 92 95 96 90 93 92 83 82 78 81 86 72 70 51 46 47 47 42 42 46 48 40 46 44
59 68 61 42 26 20 20 24 26 29 31 42 51 56 66 72 69 70 70 65 72 79 92 98 89 92 96 94 88 89 92 85 74 76 62 66 55 54 50 48 42 51 42 44 49 54 59
71 67 57 44 36 29 24 21 24 26 29 42 49 58 66 67 66 70 66 68 84 94 74 92 98 90 89 96 93 88 86 91 93 79 82 64 59 59 53 46 42 42 53 75 65 67 66
68 65 59 52 43 36 29 24 22 24 28 36 49 59 68 66 62 64 78 78 92 88 97 91 86 76 94 87 93 90 79 87 58 66 85 81 75 64 62 52 51 51 44 70 52 59 63
67 62 64 62 55 43 34 26 24 23 32 35 45 58 64 63 67 74 82 95 90 83 77 86 86 87 68 63 86 76 64 64 58 55 60 75 76 59 56 56 46 46 66 49 66 68 71
68 60 59 59 59 54 40 26 28 33 35 38 48 66 60 60 72 79 81 83 75 62 70 71 80 65 67 57 58 56 56 56 54 51 49 57 77 60 52 48 45 41 52 62 79 60 36
66 62 58 57 58 57 48 31 27 38 37 45 65 68 60 72 79 64 86 78 61 54 56 66 66 64 53 57 52 60 66 62 58 49 48 53 59 67 48 58 51 51 55 63 63 68 70
73 63 61 59 57 57 53 42 24 29 33 44 62 67 62 72 69 83 87 61 56 58 58 62 59 50 53 57 67 71 71 66 64 58 54 53 64 75 54 59 57 58 46 54 54 44 70
92 59 62 62 58 58 56 49 35 24 28 38 54 61 71 72 76 84 66 59 58 57 56 56 56 51 50 58 68 74 70 64 61 61 58 54 64 73 50 44 50 58 57 51 59 63 61
94 73 59 63 61 57 56 52 45 28 28 42 54 77 66 61 56 65 62 63 59 55 52 50 51 48 52 60 69 77 75 67 60 59 61 53 68 48 50 40 51 56 59 57 54 78 58
83 94 70 61 62 57 56 53 50 35 32 55 52 63 61 66 54 55 54 58 61 57 50 45 46 49 50 64 65 79 78 70 64 61 53 53 67 60 51 50 57 54 53 64 57 45 45
52 99 97 61 63 59 56 53 54 42 32 33 48 57 53 54 50 47 50 48 53 54 50 45 50 57 52 56 57 72 72 71 55 64 55 57 64 48 54 44 44 44 51 66 66 54 53
61 70 98 93 60 64 55 54 52 48 32 31 44 46 48 58 56 50 52 45 49 49 52 52 46 54 65 59 55 59 59 62 64 66 64 57 62 62 46 56 41 34 37 59 69 64 57
97 76 92 99 83 66 60 55 50 49 44 37 30 46 54 54 53 50 45 47 53 53 52 56 51 52 56 50 46 44 46 54 58 68 57 64 63 73 76 35 38 27 36 40 62 61 62
97 96 83 98 100 70 68 59 54 51 50 46 44 36 40 53 48 45 50 56 53 53 63 59 60 58 53 46 56 50 56 37 55 70 70 59 65 76 63 49 30 32 39 45 45 28 56
100 100 91 96 98 98 71 67 59 54 50 48 47 46 40 44 46 43 49 51 59 61 63 63 62 58 51 59 51 45 50 35 58 62 60 64 62 49 71 32 18 18 31 33 30 34 43
98 99 99 91 98 98 92 77 65 59 53 47 47 46 47 47 44 42 53 54 51 59 67 70 62 59 54 63 51 52 49 55 60 62 72 69 71 67 71 61 46 31 34 33 21 16 43
100 100 98 88 98 98 100 79 76 66 60 51 47 47 46 47 56 52 46 51 50 51 63 62 61 65 73 61 57 57 50 55 59 58 66 59 72 78 74 63 34 37 38 33 27 40 38
99 96 97 98 99 97 98 99 90 74 67 60 51 50 50 50 55 57 50 47 51 51 50 60 47 58 52 68 73 64 55 59 48 38 62 50 44 51 52 45 30 36 31 30 32 35 39

GFSGBSN_850_rhum_144.txt.gz
RH
84 73 95 99 97 98 59 38 36 42 44 49 50 48 42 49 54 61 67 65 73 79 74 82 72 75 94 98 88 82 80 78 84 76 84 90 85 67 80 76 53 45 38 33 35 37 34
67 64 74 92 80 72 72 40 38 42 46 50 53 57 54 48 58 63 71 70 74 78 80 88 82 92 99 95 92 83 79 74 73 84 84 92 77 61 63 67 50 41 36 35 34 32 31
44 47 47 72 81 48 46 41 41 42 46 51 53 58 60 55 55 58 63 68 75 85 87 90 94 91 99 94 87 90 86 83 88 85 84 88 74 60 59 65 39 36 38 36 37 35 30
30 44 42 44 50 42 43 43 44 44 45 50 54 58 62 63 61 59 63 70 80 93 87 88 94 91 88 97 92 96 91 98 97 84 81 90 99 64 56 47 39 41 45 51 36 37 28
27 31 36 39 43 42 43 44 46 47 46 47 54 54 55 60 60 57 59 64 76 96 91 90 89 93 85 97 97 100 99 100 97 89 81 95 71 58 45 57 67 58 68 50 40 34 30
26 28 30 38 39 40 44 47 47 50 52 49 50 52 53 56 60 58 56 65 77 77 85 78 80 76 71 89 86 94 99 100 99 99 95 87 87 62 56 67 72 64 61 49 48 36 34
27 25 27 30 38 40 41 43 45 49 53 54 57 52 52 55 58 59 58 71 72 74 81 98 99 97 89 80 82 91 96 100 99 93 92 96 100 79 56 57 52 51 46 52 44 38 35
22 25 26 26 28 31 34 35 35 34 38 44 54 59 62 65 70 71 64 74 82 82 90 88 96 92 96 94 88 79 79 88 82 92 89 95 89 52 48 51 46 44 47 56 44 41 36
38 28 23 23 26 26 27 28 29 30 34 36 44 54 60 66 71 73 69 74 83 86 90 89 94 94 95 94 93 90 80 80 79 87 93 98 87 60 46 50 47 47 46 56 51 38 37
65 54 46 31 20 21 24 27 28 29 32 37 46 53 60 66 74 70 67 68 71 88 90 91 90 91 89 87 88 83 85 82 78 90 88 94 62 50 48 46 46 45 43 48 52 50 61
65 60 64 51 33 23 19 22 26 27 30 35 46 53 62 69 76 75 71 66 70 82 89 80 91 97 89 88 89 82 83 80 84 89 90 90 70 47 50 46 42 46 48 48 41 44 48
57 67 58 49 40 34 28 22 22 25 28 33 49 54 67 66 72 71 70 68 75 78 94 97 92 87 85 91 84 83 83 80 79 81 74 79 58 60 53 51 46 53 40 47 53 52 58
58 64 56 51 45 40 34 27 24 24 26 32 48 57 69 66 68 72 67 72 85 92 69 87 98 93 95 92 82 82 83 94 96 94 98 85 60 59 51 51 44 40 55 79 67 69 66
72 62 63 59 56 48 40 30 26 26 25 34 45 58 68 74 70 68 76 75 82 85 93 84 88 91 99 93 92 94 96 93 72 69 89 95 88 62 62 51 55 47 45 74 59 68 66
71 65 62 61 58 56 45 32 30 34 37 37 42 57 66 74 75 78 77 94 90 78 77 92 82 82 88 93 90 86 78 67 60 63 60 72 77 60 58 56 45 45 66 46 69 67 73
63 69 59 58 57 56 51 39 29 42 43 41 48 61 64 70 78 88 81 82 77 68 73 73 83 66 69 64 76 67 66 58 56 52 49 57 77 61 52 50 48 44 54 61 78 56 43
76 61 61 58 58 56 56 46 31 32 41 49 67 68 70 76 86 75 86 79 67 57 58 70 72 65 57 61 54 63 70 61 60 55 49 55 58 63 50 57 51 50 54 66 63 67 61
84 50 62 59 59 58 56 51 43 29 33 46 67 70 72 80 77 86 89 66 59 59 59 63 64 55 55 59 72 71 69 64 64 61 56 56 64 75 55 61 59 60 44 49 54 42 72
87 81 55 59 60 58 57 54 49 36 29 41 60 68 77 80 76 84 68 61 60 60 59 59 59 53 52 62 68 73 71 66 62 59 54 52 61 71 51 45 52 58 59 54 57 63 63
96 86 62 57 59 61 57 56 52 42 32 47 59 82 78 73 61 65 65 63 59 56 56 52 54 51 53 62 72 77 76 68 63 60 60 54 65 47 59 43 53 57 59 58 53 75 52
100 94 90 55 57 62 56 57 53 46 36 58 54 56 63 66 55 61 57 62 63 58 51 47 48 52 53 67 68 75 79 71 63 62 56 55 63 61 54 53 58 51 53 67 59 47 43
99 95 96 86 50 63 57 58 54 49 36 42 52 56 58 58 54 51 52 60 58 55 52 46 50 59 53 60 59 70 71 71 57 62 54 54 69 51 62 45 44 46 55 64 66 55 51
98 93 95 99 50 62 60 57 56 53 40 34 39 46 50 63 59 53 54 46 52 53 54 54 49 56 62 60 58 60 61 67 66 63 62 57 65 67 55 55 44 40 42 62 68 64 56
89 96 96 99 86 60 64 59 57 56 49 44 34 41 56 55 57 54 46 49 56 54 49 57 52 51 58 52 48 46 49 58 60 69 58 58 58 71 69 35 46 30 35 39 60 60 62
93 98 98 98 93 93 64 64 60 57 55 50 47 39 44 51 50 47 54 57 56 57 65 58 60 60 56 49 50 43 48 35 55 72 72 59 60 71 58 45 31 24 40 46 47 27 57
82 91 81 96 100 99 84 74 62 60 55 52 50 48 43 46 48 43 53 53 60 61 63 66 62 59 51 60 49 40 38 32 46 58 61 63 60 46 66 28 16 14 30 34 29 28 28
99 82 97 97 99 96 99 77 67 62 58 54 52 49 49 48 41 44 54 55 52 60 65 71 65 60 53 61 50 52 54 52 60 54 72 73 74 64 68 56 40 28 35 33 19 15 37
100 95 95 87 90 94 98 99 78 68 62 61 54 51 49 48 51 45 47 51 51 53 64 66 60 63 71 56 54 56 50 56 59 56 67 64 71 76 73 56 31 36 40 32 26 34 40
100 100 99 100 88 91 94 100 91 85 68 66 58 55 54 54 54 57 55 47 49 44 43 61 46 59 54 66 72 64 56 63 51 39 64 50 42 48 53 44 28 36 33 30 31 35 36